TimeCDT,TemperatureF,Dew PointF,Humidity,Sea Level PressureIn,VisibilityMPH,Wind Direction,Wind SpeedMPH,Gust SpeedMPH,PrecipitationIn,Events,Conditions,WindDirDegrees,DateUTC
12:15 AM,59.9,46.0,60,30.06,10.0,NNW,5.8,-,N/A,,Clear,330,2013-11-02 05:15:00
12:35 AM,58.3,46.4,65,30.06,10.0,NW,4.6,-,N/A,,Clear,310,2013-11-02 05:35:00
12:55 AM,57.2,46.4,67,30.07,10.0,WNW,5.8,-,N/A,,Clear,290,2013-11-02 05:55:00
1:15 AM,56.7,46.2,68,30.07,10.0,WNW,5.8,-,N/A,,Clear,300,2013-11-02 06:15:00
1:35 AM,55.8,46.2,70,30.07,10.0,WNW,5.8,-,N/A,,Clear,290,2013-11-02 06:35:00
1:55 AM,55.4,45.9,70,30.08,10.0,WNW,5.8,-,N/A,,Clear,300,2013-11-02 06:55:00
2:15 AM,54.9,45.9,72,30.09,10.0,WNW,6.9,-,N/A,,Clear,300,2013-11-02 07:15:00
2:35 AM,55.0,46.0,72,30.09,10.0,WNW,6.9,-,N/A,,Clear,300,2013-11-02 07:35:00
2:55 AM,54.1,45.9,74,30.09,10.0,WNW,6.9,-,N/A,,Clear,300,2013-11-02 07:55:00
3:15 AM,53.6,45.9,75,30.09,10.0,WNW,5.8,-,N/A,,Clear,290,2013-11-02 08:15:00
3:35 AM,53.1,45.9,77,30.09,10.0,WNW,6.9,-,N/A,,Clear,290,2013-11-02 08:35:00
3:55 AM,52.3,45.9,79,30.10,10.0,WNW,6.9,-,N/A,,Clear,300,2013-11-02 08:55:00
4:15 AM,52.7,45.5,76,30.11,10.0,NW,6.9,-,N/A,,Clear,310,2013-11-02 09:15:00
4:35 AM,53.4,45.5,75,30.11,10.0,NW,8.1,-,N/A,,Clear,310,2013-11-02 09:35:00
4:55 AM,52.7,45.5,76,30.12,10.0,NW,6.9,-,N/A,,Clear,320,2013-11-02 09:55:00
5:15 AM,52.9,45.1,75,30.13,10.0,NW,8.1,-,N/A,,Clear,320,2013-11-02 10:15:00
5:35 AM,52.5,44.8,75,30.13,10.0,NW,6.9,-,N/A,,Clear,320,2013-11-02 10:35:00
5:55 AM,51.8,44.6,76,30.14,10.0,NW,6.9,-,N/A,,Clear,310,2013-11-02 10:55:00
6:15 AM,50.9,44.2,78,30.15,10.0,NW,6.9,-,N/A,,Clear,320,2013-11-02 11:15:00
6:35 AM,50.9,44.1,77,30.15,10.0,NNW,6.9,-,N/A,,Clear,330,2013-11-02 11:35:00
6:55 AM,50.5,43.7,77,30.16,10.0,NW,8.1,-,N/A,,Clear,320,2013-11-02 11:55:00
7:15 AM,50.4,43.2,76,30.17,10.0,NW,6.9,-,N/A,,Clear,310,2013-11-02 12:15:00
7:35 AM,50.7,42.6,74,30.18,10.0,NW,9.2,-,N/A,,Clear,320,2013-11-02 12:35:00
7:55 AM,50.0,42.8,76,30.19,10.0,NW,9.2,-,N/A,,Clear,310,2013-11-02 12:55:00
8:15 AM,50.5,42.3,73,30.20,10.0,NW,9.2,-,N/A,,Clear,310,2013-11-02 13:15:00
8:35 AM,51.8,42.6,71,30.21,10.0,NW,8.1,-,N/A,,Clear,320,2013-11-02 13:35:00
8:55 AM,52.7,43.0,70,30.22,10.0,NNW,9.2,-,N/A,,Clear,330,2013-11-02 13:55:00
9:15 AM,54.3,43.3,66,30.23,10.0,NW,11.5,-,N/A,,Clear,320,2013-11-02 14:15:00
9:35 AM,55.9,41.5,58,30.23,10.0,NNW,10.4,17.3,N/A,,Clear,340,2013-11-02 14:35:00
9:55 AM,57.6,40.8,54,30.24,10.0,NNW,11.5,-,N/A,,Clear,340,2013-11-02 14:55:00
10:15 AM,59.2,40.3,50,30.24,10.0,NNW,16.1,20.7,N/A,,Clear,330,2013-11-02 15:15:00
10:35 AM,60.1,39.4,46,30.25,10.0,North,15.0,21.9,N/A,,Clear,360,2013-11-02 15:35:00
10:55 AM,61.3,39.0,44,30.25,10.0,NNW,13.8,19.6,N/A,,Clear,340,2013-11-02 15:55:00
12:15 PM,63.5,36.7,37,30.26,10.0,North,16.1,24.2,N/A,,Clear,350,2013-11-02 17:15:00
12:35 PM,64.2,37.2,37,30.25,10.0,NNW,13.8,21.9,N/A,,Clear,340,2013-11-02 17:35:00
12:55 PM,64.9,36.7,35,30.25,10.0,NNW,13.8,23.0,N/A,,Clear,330,2013-11-02 17:55:00
1:15 PM,64.8,35.2,33,30.24,10.0,NNW,15.0,24.2,N/A,,Clear,340,2013-11-02 18:15:00
1:35 PM,66.2,37.2,34,30.23,10.0,NNW,8.1,17.3,N/A,,Clear,340,2013-11-02 18:35:00
1:55 PM,66.0,35.8,33,30.22,10.0,NNW,12.7,19.6,N/A,,Clear,330,2013-11-02 18:55:00
2:15 PM,66.9,35.1,31,30.21,10.0,North,15.0,23.0,N/A,,Clear,360,2013-11-02 19:15:00
2:35 PM,66.9,34.5,30,30.20,10.0,NNW,13.8,23.0,N/A,,Clear,330,2013-11-02 19:35:00
2:55 PM,67.6,35.1,30,30.20,10.0,North,15.0,21.9,N/A,,Clear,350,2013-11-02 19:55:00
3:15 PM,67.3,34.0,29,30.20,10.0,North,11.5,20.7,N/A,,Clear,350,2013-11-02 20:15:00
3:35 PM,67.6,34.7,30,30.20,10.0,NNW,8.1,-,N/A,,Clear,340,2013-11-02 20:35:00
3:55 PM,67.8,34.9,30,30.19,10.0,North,12.7,18.4,N/A,,Clear,360,2013-11-02 20:55:00
4:15 PM,68.0,34.3,29,30.19,10.0,NNW,12.7,18.4,N/A,,Clear,330,2013-11-02 21:15:00
4:35 PM,68.0,35.1,30,30.19,10.0,North,13.8,18.4,N/A,,Clear,350,2013-11-02 21:35:00
4:55 PM,68.0,34.0,28,30.19,10.0,North,10.4,-,N/A,,Clear,350,2013-11-02 21:55:00
5:15 PM,67.1,32.7,28,30.18,10.0,North,10.4,-,N/A,,Clear,360,2013-11-02 22:15:00
5:35 PM,66.2,34.0,30,30.18,10.0,North,9.2,-,N/A,,Clear,360,2013-11-02 22:35:00
5:55 PM,65.1,34.5,32,30.18,10.0,North,5.8,-,N/A,,Clear,10,2013-11-02 22:55:00
6:15 PM,63.3,35.4,35,30.18,10.0,Calm,Calm,-,N/A,,Clear,0,2013-11-02 23:15:00
6:35 PM,61.7,36.5,39,30.19,10.0,NNW,3.5,-,N/A,,Clear,340,2013-11-02 23:35:00
6:55 PM,60.3,36.3,41,30.19,10.0,Calm,Calm,-,N/A,,Clear,0,2013-11-02 23:55:00
7:15 PM,58.6,36.9,44,30.20,10.0,Calm,Calm,-,N/A,,Clear,0,2013-11-03 00:15:00
7:35 PM,58.8,36.0,42,30.21,10.0,Calm,Calm,-,N/A,,Clear,0,2013-11-03 00:35:00
7:55 PM,58.5,35.8,43,30.21,10.0,Calm,Calm,-,N/A,,Clear,0,2013-11-03 00:55:00
8:15 PM,56.1,36.3,47,30.21,10.0,Calm,Calm,-,N/A,,Clear,0,2013-11-03 01:15:00
8:35 PM,56.3,36.3,47,30.21,10.0,Calm,Calm,-,N/A,,Clear,0,2013-11-03 01:35:00
8:55 PM,52.5,38.1,58,30.22,10.0,Calm,Calm,-,N/A,,Clear,0,2013-11-03 01:55:00
9:15 PM,54.5,36.3,50,30.22,10.0,Calm,Calm,-,N/A,,Clear,0,2013-11-03 02:15:00
9:35 PM,52.0,37.9,59,30.23,7.0,Calm,Calm,-,N/A,,Clear,0,2013-11-03 02:35:00
9:55 PM,51.6,40.6,66,30.23,10.0,Calm,Calm,-,N/A,,Clear,0,2013-11-03 02:55:00
10:15 PM,51.1,39.7,65,30.23,7.0,Calm,Calm,-,N/A,,Clear,0,2013-11-03 03:15:00
10:35 PM,53.6,38.7,57,30.23,10.0,Calm,Calm,-,N/A,,Clear,0,2013-11-03 03:35:00
10:55 PM,49.6,39.9,69,30.24,10.0,Calm,Calm,-,N/A,,Clear,0,2013-11-03 03:55:00
11:15 PM,51.3,39.4,64,30.24,10.0,Calm,Calm,-,N/A,,Clear,0,2013-11-03 04:15:00
11:35 PM,51.3,39.4,64,30.23,10.0,Calm,Calm,-,N/A,,Clear,0,2013-11-03 04:35:00
11:55 PM,49.6,40.1,70,30.23,10.0,Calm,Calm,-,N/A,,Clear,0,2013-11-03 04:55:00